THOR ABLESTAR DEB, 465

Orbit data source: Space-Track

THOR ABLESTAR DEB, 465 is space debris in LEO originally from a launch on Thu, 29 Jun 1961 UTC launched from the Air Force Eastern Test Range (AFETR). Debris objects in space refer to the collection of defunct objects orbiting the Earth. Examples of debris include non-operational satellites, rocket bodies, and fragments generated from explosions, collisions, or faulty payload assembly.

Loading next visibility...
Identifier
465, 1961-015FB
Orbit
LEO
Country
Flag of USUS
Related business
Manufacturer
Unknown
Mission
Spacecraft
Bus & Motor
Unknown
Mass
Unknown
Launch date (UTC)
1961-06-29 (65 years ago)
Launch vehicle
Unknown
Launch site
Air Force Eastern Test Range (AFETR)
Object type
Payload
Rocket body
Debris
Shape & HBR
Unknown shape, 0.1 m
Radar Cross Section
Small (<0.1 m²)

Expand to show TLE details & history
Last TLE update: 13 hours ago

TLE from 13 hours ago
0 THOR ABLESTAR DEB
1   465U 61015FB  26037.95665358  .00003018  00000-0  96927-3 0  9991
2   465  66.3164 247.6550 0029080  20.9305 339.2979 14.40538344327347
Epoch: 2026-02-06T22:57Z
TLE epoch observation values (Epoch: 2026-02-06T22:57:34.869Z)
Latitude
0.00005°
Longitude
126.17265°
Altitude
739.404 km
Speed
7.496 km/s
True Right ascension
16h 30m 37s
True Declination
0° 00' 00"
Sunlit
Object was in daylight at epoch
Visualization orbit readout
Latitude
Unknown
Longitude
Unknown
Altitude
Unknown
Speed
Unknown
Apparent Right ascension
Unknown
Apparent Declination
Unknown
Sunlit
N/A
Visualization observer readout
Local Sidereal Time
13:57:40
Azimuth
Unknown
Elevation
Unknown
Doppler factor
Unknown
Orbital elements
Apogee altitude
775.876 km
Perigee altitude
734.389 km
Semi-major axis
7,133.27 km
Eccentricity
0.00291
Inclination
66.3164°
RAAN
247.655°
Arg. of periapsis
20.9305°
True anomaly
339.1797°
Mean anomaly
339.2979°
Eccentric anomaly
339.23884°
Mean motion
3.60255 °/min
Orbital period
99.93 mins
BSTAR
0.00096927
Loading maneuver chart data...
Computing Atmospheric mass density...

Documentation

Showing up to 5 results
|